CX5ACA-13 Weather Reports


Display with metric or nautical units.
time (UTC)temp
F
wind
direction
speed
MPH
gust
MPH
rain 1hr
in
rain 24hr
in
rain mn
in
humidity
%
barometer
mb
20260506004839 68 107 0.0 0.0 0.00 0.00 0.00 89 1014.3
20260506004337 68 88 0.0 1.0 0.00 0.00 0.00 89 1014.3
20260506003833 68 113 0.0 1.0 0.00 0.00 0.00 89 1014.4
20260506003329 68 271 1.0 1.0 0.00 0.00 0.00 88 1014.5
20260506002826 68 121 0.0 0.0 0.00 0.00 0.00 88 1014.6
20260506002322 68 57 2.0 2.0 0.00 0.00 0.00 88 1014.7
20260506001818 68 100 0.0 0.0 0.00 0.00 0.00 87 1014.7
20260506001315 68 127 0.0 0.0 0.00 0.00 0.00 87 1014.7
20260506000812 68 129 0.0 0.0 0.00 0.00 0.00 87 1014.6
20260506000310 68 133 0.0 0.0 0.00 0.00 0.00 87 1015.0
20260505235806 68 120 0.0 0.0 0.00 0.00 0.00 87 1014.6
20260505235305 68 122 0.0 0.0 0.00 0.00 0.00 87 1014.5
20260505234801 68 138 0.0 0.0 0.00 0.00 0.00 87 1014.7
20260505234259 68 142 0.0 0.0 0.00 0.00 0.00 87 1014.5
20260505233755 68 143 0.0 0.0 0.00 0.00 0.00 86 1014.6
20260505233253 68 140 0.0 0.0 0.00 0.00 0.00 86 1014.5
20260505232750 68 131 0.0 0.0 0.00 0.00 0.00 85 1014.7
20260505232247 68 126 0.0 0.0 0.00 0.00 0.00 85 1014.8
20260505231743 69 128 0.0 0.0 0.00 0.00 0.00 85 1014.9
20260505231243 69 154 0.0 0.0 0.00 0.00 0.00 85 1014.6
20260505230741 69 143 0.0 0.0 0.00 0.00 0.00 85 1014.6
20260505230237 69 138 0.0 0.0 0.00 0.00 0.00 84 1014.6
20260505225734 69 60 1.0 2.0 0.00 0.00 0.00 84 1014.6
20260505225231 69 132 0.0 0.0 0.00 0.00 0.00 84 1014.8
20260505224726 69 145 0.0 0.0 0.00 0.00 0.00 84 1014.9
20260505224224 69 150 0.0 0.0 0.00 0.00 0.00 84 1014.7
20260505223721 69 133 0.0 0.0 0.00 0.00 0.00 84 1014.8
20260505223217 69 125 0.0 0.0 0.00 0.00 0.00 83 1014.8
20260505222713 69 134 0.0 0.0 0.00 0.00 0.00 83 1014.9
20260505222209 69 112 0.0 0.0 0.00 0.00 0.00 83 1014.8
20260505221707 69 122 0.0 0.0 0.00 0.00 0.00 83 1014.7
20260505221203 69 102 1.0 1.0 0.00 0.00 0.00 84 1014.9
20260505220700 69 103 0.0 0.0 0.00 0.00 0.00 84 1014.8
20260505220158 69 118 0.0 0.0 0.00 0.00 0.00 84 1014.7
20260505215655 69 131 0.0 0.0 0.00 0.00 0.00 84 1014.6
20260505215154 69 137 0.0 0.0 0.00 0.00 0.00 84 1014.4
20260505214651 69 135 0.0 0.0 0.00 0.00 0.00 83 1014.6
20260505214148 69 141 0.0 0.0 0.00 0.00 0.00 83 1014.5
20260505213646 69 145 0.0 0.0 0.00 0.00 0.00 83 1014.3
20260505213143 69 140 0.0 0.0 0.00 0.00 0.00 83 1014.2
20260505212638 70 126 0.0 0.0 0.00 0.00 0.00 83 1014.3
20260505212136 70 124 0.0 0.0 0.00 0.00 0.00 83 1014.5
20260505211633 70 130 0.0 0.0 0.00 0.00 0.00 83 1014.3
20260505211130 70 112 0.0 0.0 0.00 0.00 0.00 83 1014.5
20260505210627 70 145 0.0 0.0 0.00 0.00 0.00 84 1014.5
20260505210123 70 145 0.0 0.0 0.00 0.00 0.00 84 1014.5
20260505205621 70 149 0.0 0.0 0.00 0.00 0.00 85 1014.6
20260505205119 70 151 0.0 0.0 0.00 0.00 0.00 85 1014.6
20260505204616 70 152 0.0 0.0 0.00 0.00 0.00 85 1014.6
20260505204113 70 152 0.0 0.0 0.00 0.00 0.00 85 1014.5
20260505203609 70 152 0.0 0.0 0.00 0.00 0.00 85 1014.5
20260505203107 70 152 0.0 0.0 0.00 0.00 0.00 84 1014.4
20260505202602 70 152 0.0 0.0 0.00 0.00 0.00 84 1014.3
20260505202059 70 152 0.0 0.0 0.00 0.00 0.00 84 1014.4
20260505201555 70 154 0.0 0.0 0.00 0.00 0.00 84 1014.5
20260505201053 70 155 0.0 0.0 0.00 0.00 0.00 84 1014.6
20260505200551 70 163 0.0 0.0 0.00 0.00 0.00 84 1014.6
20260505200048 70 154 0.0 0.0 0.00 0.00 0.00 84 1014.6
20260505195544 70 155 0.0 0.0 0.00 0.00 0.00 83 1014.7
20260505195042 70 156 0.0 0.0 0.00 0.00 0.00 83 1014.7
20260505194538 71 197 0.0 0.0 0.00 0.00 0.00 82 1014.7
20260505194034 71 163 0.0 0.0 0.00 0.00 0.00 80 1014.5
20260505193531 72 164 0.0 0.0 0.00 0.00 0.00 80 1014.7
20260505193028 71 156 0.0 0.0 0.00 0.00 0.00 82 1014.6
20260505192527 70 149 0.0 0.0 0.00 0.00 0.00 82 1014.4
20260505192024 70 167 0.0 0.0 0.00 0.00 0.00 82 1014.3
20260505191522 70 173 1.0 1.0 0.00 0.00 0.00 83 1014.5
20260505191020 70 156 1.0 1.0 0.00 0.00 0.00 82 1014.4
20260505190514 71 157 1.0 1.0 0.00 0.00 0.00 81 1014.6
20260505190011 71 161 0.0 0.0 0.00 0.00 0.00 81 1014.4
20260505185508 71 152 0.0 0.0 0.00 0.00 0.00 81 1014.7
20260505185004 71 162 0.0 0.0 0.00 0.00 0.00 81 1014.6
20260505184501 71 185 0.0 1.0 0.00 0.00 0.00 80 1014.5
20260505183957 72 172 1.0 2.0 0.00 0.00 0.00 79 1014.5
20260505183454 73 152 0.0 0.0 0.00 0.00 0.00 78 1014.3
20260505182951 73 188 2.0 2.0 0.00 0.00 0.00 78 1014.5
20260505182448 73 185 1.0 2.0 0.00 0.00 0.00 77 1014.3
20260505181944 74 184 0.0 0.0 0.00 0.00 0.00 76 1014.5
20260505181442 73 140 0.0 0.0 0.00 0.00 0.00 76 1014.5
20260505180938 72 140 0.0 0.0 0.00 0.00 0.00 77 1014.4
20260505180434 71 164 0.0 0.0 0.00 0.00 0.00 78 1014.4
20260505175931 72 154 0.0 0.0 0.00 0.00 0.00 78 1014.5
20260505175428 71 144 0.0 0.0 0.00 0.00 0.00 79 1014.2
20260505174924 72 168 2.0 2.0 0.00 0.00 0.00 79 1014.4
20260505174422 74 180 1.0 1.0 0.00 0.00 0.00 76 1014.4
20260505173918 74 136 0.0 0.0 0.00 0.00 0.00 77 1014.2
20260505173414 74 102 0.0 0.0 0.00 0.00 0.00 76 1013.9
20260505172911 74 156 0.0 0.0 0.00 0.00 0.00 76 1014.0
20260505172409 74 335 2.0 3.0 0.00 0.00 0.00 75 1014.1
20260505171908 74 159 1.0 1.0 0.00 0.00 0.00 76 1014.0
20260505171406 74 120 0.0 1.0 0.00 0.00 0.00 75 1013.8
20260505170902 75 145 0.0 0.0 0.00 0.00 0.00 74 1014.0
20260505170359 75 292 1.0 1.0 0.00 0.00 0.00 73 1013.8
20260505165854 74 121 0.0 0.0 0.00 0.00 0.00 73 1014.1
20260505165350 74 102 0.0 0.0 0.00 0.00 0.00 73 1013.9
20260505164846 75 146 0.0 0.0 0.00 0.00 0.00 72 1014.1
20260505164343 75 97 0.0 0.0 0.00 0.00 0.00 70 1014.2
20260505163841 76 149 0.0 0.0 0.00 0.00 0.00 69 1014.1
20260505163340 75 140 1.0 1.0 0.00 0.00 0.00 72 1014.0
20260505162838 73 114 0.0 1.0 0.00 0.00 0.00 73 1013.5
20260505162334 72 195 2.0 2.0 0.00 0.00 0.00 76 1014.5
20260505161831 72 114 0.0 1.0 0.00 0.00 0.00 75 1015.0
20260505161328 72 116 0.0 0.0 0.00 0.00 0.00 75 1014.9
20260505160825 71 125 0.0 0.0 0.00 0.00 0.00 76 1015.1
20260505160323 72 300 2.0 2.0 0.00 0.00 0.00 75 1015.0
20260505153302 71 107 0.0 1.0 0.00 0.00 0.00 75 1015.4
20260505152800 71 153 1.0 1.0 0.00 0.00 0.00 75 1015.1
20260505152256 70 135 0.0 0.0 0.00 0.00 0.00 75 1015.3
20260505151755 70 126 1.0 1.0 0.00 0.00 0.00 76 1015.3
20260505151253 70 97 3.0 3.0 0.00 0.00 0.00 75 1015.4
20260505150750 70 113 0.0 1.0 0.00 0.00 0.00 74 1015.4
20260505150247 70 353 0.0 1.0 0.00 0.00 0.00 74 1015.2
20260505140217 67 83 1.0 2.0 0.00 0.00 0.00 79 1015.2
20260505130141 64 62 1.0 1.0 0.00 0.00 0.00 80 1015.4
20260505124631 64 60 2.0 3.0 0.00 0.00 0.00 80 1015.3
20260505124127 64 24 2.0 3.0 0.00 0.00 0.00 81 1015.2
20260505123623 63 34 1.0 1.0 0.00 0.00 0.00 80 1015.3
20260505123120 63 79 1.0 2.0 0.00 0.00 0.00 80 1015.1
20260505122617 63 105 0.0 0.0 0.00 0.00 0.00 80 1015.0
20260505122114 62 116 0.0 0.0 0.00 0.00 0.00 81 1015.0
20260505121610 62 85 0.0 0.0 0.00 0.00 0.00 81 1015.1
20260505121107 62 111 0.0 0.0 0.00 0.00 0.00 81 1015.0
20260505120604 62 115 0.0 0.0 0.00 0.00 0.00 81 1015.1
20260505120059 62 121 0.0 0.0 0.00 0.00 0.00 81 1015.0
20260505115554 62 148 0.0 0.0 0.00 0.00 0.00 81 1015.0
20260505115052 62 119 0.0 0.0 0.00 0.00 0.00 81 1014.9
20260505114548 62 100 0.0 0.0 0.00 0.00 0.00 80 1015.0
20260505114045 62 44 0.0 1.0 0.00 0.00 0.00 80 1015.0
20260505113541 62 121 0.0 0.0 0.00 0.00 0.00 80 1014.8
20260505113038 62 97 1.0 1.0 0.00 0.00 0.00 80 1014.8
20260505112534 62 121 0.0 0.0 0.00 0.00 0.00 79 1014.7
20260505112032 62 128 0.0 0.0 0.00 0.00 0.00 79 1014.7
20260505111526 62 129 0.0 0.0 0.00 0.00 0.00 79 1014.8
20260505111023 62 135 0.0 0.0 0.00 0.00 0.00 80 1014.6
20260505110519 62 136 0.0 0.0 0.00 0.00 0.00 80 1014.6
20260505101951 61 129 2.0 3.0 0.00 0.00 0.00 79 1014.1
20260505101449 61 85 0.0 1.0 0.00 0.00 0.00 79 1014.3
20260505100946 61 30 1.0 2.0 0.00 0.00 0.00 80 1014.0
20260505100443 61 41 0.0 1.0 0.00 0.00 0.00 79 1014.0
20260505095939 61 48 1.0 1.0 0.00 0.00 0.00 79 1014.0
20260505095436 61 108 0.0 1.0 0.00 0.00 0.00 78 1014.1
20260505094932 61 72 2.0 3.0 0.00 0.00 0.00 79 1014.0
20260505094429 61 103 0.0 1.0 0.00 0.00 0.00 79 1014.0
20260505093925 61 112 0.0 1.0 0.00 0.00 0.00 79 1013.8
20260505093422 61 102 0.0 1.0 0.00 0.00 0.00 79 1013.9
20260505092919 61 110 0.0 1.0 0.00 0.00 0.00 79 1013.9
20260505092417 61 109 0.0 1.0 0.00 0.00 0.00 79 1013.8
20260505091915 61 49 2.0 2.0 0.00 0.00 0.00 78 1013.5
20260505091412 61 63 1.0 1.0 0.00 0.00 0.00 78 1013.6
20260505090910 60 128 1.0 2.0 0.00 0.00 0.00 80 1013.3
20260505090408 60 98 0.0 1.0 0.00 0.00 0.00 80 1013.3
20260505085905 59 102 2.0 2.0 0.00 0.00 0.00 81 1013.4
20260505085403 59 55 0.0 1.0 0.00 0.00 0.00 81 1013.3
20260505084901 59 127 0.0 1.0 0.00 0.00 0.00 82 1013.1
20260505084359 58 122 1.0 2.0 0.00 0.00 0.00 82 1013.2
20260505083856 58 74 0.0 1.0 0.00 0.00 0.00 83 1013.2
20260505083354 58 83 0.0 1.0 0.00 0.00 0.00 83 1013.2
20260505082849 58 81 1.0 1.0 0.00 0.00 0.00 83 1013.1
20260505082346 58 99 0.0 0.0 0.00 0.00 0.00 83 1013.0
20260505081842 58 60 0.0 1.0 0.00 0.00 0.00 83 1013.1
20260505081339 58 117 0.0 0.0 0.00 0.00 0.00 83 1012.9
20260505080836 57 109 0.0 0.0 0.00 0.00 0.00 85 1013.1
20260505080332 57 127 0.0 0.0 0.00 0.00 0.00 86 1013.0
20260505075827 57 127 0.0 0.0 0.00 0.00 0.00 86 1012.8
20260505075325 57 127 0.0 0.0 0.00 0.00 0.00 85 1012.8
20260505074822 57 127 0.0 0.0 0.00 0.00 0.00 85 1012.8
20260505074319 57 137 0.0 0.0 0.00 0.00 0.00 86 1012.8
20260505073816 57 150 0.0 0.0 0.00 0.00 0.00 86 1012.7
20260505073314 56 153 0.0 0.0 0.00 0.00 0.00 87 1013.0
20260505072811 56 131 0.0 0.0 0.00 0.00 0.00 88 1012.9
20260505072307 56 134 0.0 0.0 0.00 0.00 0.00 88 1012.8
20260505071803 56 134 0.0 0.0 0.00 0.00 0.00 88 1012.8
20260505071300 56 134 0.0 0.0 0.00 0.00 0.00 88 1012.8
20260505070758 56 134 0.0 0.0 0.00 0.00 0.00 87 1012.9
20260505070254 56 133 0.0 0.0 0.00 0.00 0.00 87 1012.8
20260505065749 57 133 0.0 0.0 0.00 0.00 0.00 86 1012.6
20260505065246 57 136 0.0 0.0 0.00 0.00 0.00 86 1012.9
20260505064743 57 136 0.0 0.0 0.00 0.00 0.00 86 1012.9
20260505064241 57 137 0.0 0.0 0.00 0.00 0.00 85 1012.9
20260505063738 57 131 0.0 0.0 0.00 0.00 0.00 85 1013.0
20260505063234 57 128 0.0 0.0 0.00 0.00 0.00 85 1012.8
20260505062731 57 121 0.0 0.0 0.00 0.00 0.00 85 1013.1
20260505062229 57 134 0.0 0.0 0.00 0.00 0.00 86 1013.1
20260505061725 57 134 0.0 0.0 0.00 0.00 0.00 85 1013.0
20260505061223 57 134 0.0 0.0 0.00 0.00 0.00 85 1013.2
20260505060720 58 133 0.0 0.0 0.00 0.00 0.00 84 1013.3
20260505060217 58 133 0.0 0.0 0.00 0.00 0.00 83 1013.0
20260505055713 59 124 0.0 0.0 0.00 0.00 0.00 82 1013.3
20260505055209 59 123 0.0 0.0 0.00 0.00 0.00 81 1013.3
20260505054707 59 131 0.0 0.0 0.00 0.00 0.00 80 1013.4
20260505054204 60 133 0.0 0.0 0.00 0.00 0.00 79 1013.3
20260505053702 60 127 0.0 0.0 0.00 0.00 0.00 79 1013.4
20260505053158 60 138 0.0 0.0 0.00 0.00 0.00 79 1013.6
20260505052655 60 123 0.0 0.0 0.00 0.00 0.00 78 1013.3
20260505052153 60 139 0.0 0.0 0.00 0.00 0.00 78 1013.1
20260505051650 60 128 0.0 0.0 0.00 0.00 0.00 78 1013.3
20260505051148 60 130 0.0 0.0 0.00 0.00 0.00 78 1013.3
20260505050645 60 138 0.0 0.0 0.00 0.00 0.00 78 1013.1
20260505050143 60 92 0.0 0.0 0.00 0.00 0.00 78 1013.3
20260505041613 60 90 0.0 1.0 0.00 0.00 0.00 78 1012.6
20260505041110 60 64 0.0 1.0 0.00 0.00 0.00 78 1012.5
20260505040607 61 92 0.0 1.0 0.00 0.00 0.00 77 1012.5
20260505040104 61 92 1.0 2.0 0.00 0.00 0.00 77 1012.7
20260505035601 60 122 0.0 0.0 0.00 0.00 0.00 78 1012.8
20260505035057 60 123 0.0 0.0 0.00 0.00 0.00 78 1012.6
20260505034554 60 120 0.0 0.0 0.00 0.00 0.00 78 1012.9
20260505034050 60 121 0.0 0.0 0.00 0.00 0.00 78 1013.0
20260505033547 60 112 1.0 1.0 0.00 0.00 0.00 79 1013.1
20260505033046 60 107 0.0 0.0 0.00 0.00 0.00 79 1012.9
20260505032544 60 116 0.0 0.0 0.00 0.00 0.00 79 1013.1
20260505032039 59 105 0.0 0.0 0.00 0.00 0.00 80 1013.1
20260505031537 59 120 0.0 0.0 0.00 0.00 0.00 80 1013.0
20260505031033 59 97 0.0 1.0 0.00 0.00 0.00 80 1013.0
20260505030530 59 68 0.0 1.0 0.00 0.00 0.00 80 1013.1
20260505030026 60 95 0.0 0.0 0.00 0.00 0.00 79 1012.9
20260505025522 60 139 0.0 1.0 0.00 0.00 0.00 79 1012.8
20260505025022 60 117 0.0 0.0 0.00 0.00 0.00 79 1012.7
20260505024518 60 94 0.0 1.0 0.00 0.00 0.00 79 1012.8
20260505024015 59 82 1.0 1.0 0.00 0.00 0.00 79 1012.7
20260505023512 59 112 1.0 1.0 0.00 0.00 0.00 80 1012.6
20260505023010 59 133 0.0 0.0 0.00 0.00 0.00 80 1012.5
20260505022507 59 103 0.0 0.0 0.00 0.00 0.00 80 1012.8
20260505022004 59 122 0.0 0.0 0.00 0.00 0.00 81 1012.9
20260505021500 59 125 0.0 0.0 0.00 0.00 0.00 80 1012.7
20260505020956 59 86 0.0 0.0 0.00 0.00 0.00 80 1012.8
20260505020451 59 129 0.0 0.0 0.00 0.00 0.00 80 1012.6
20260505015948 59 129 0.0 0.0 0.00 0.00 0.00 79 1012.6
20260505015446 59 124 0.0 0.0 0.00 0.00 0.00 79 1012.6
20260505014943 59 115 0.0 0.0 0.00 0.00 0.00 79 1012.7
20260505014439 59 125 0.0 0.0 0.00 0.00 0.00 79 1012.7
20260505013937 60 124 0.0 0.0 0.00 0.00 0.00 78 1012.9
20260505013434 60 123 0.0 0.0 0.00 0.00 0.00 78 1012.7
20260505012931 60 55 0.0 1.0 0.00 0.00 0.00 77 1012.5
20260505012429 60 116 0.0 0.0 0.00 0.00 0.00 77 1012.5
20260505011926 61 121 0.0 0.0 0.00 0.00 0.00 76 1012.4
20260505011422 61 117 0.0 0.0 0.00 0.00 0.00 75 1012.6
20260505010919 61 85 1.0 1.0 0.00 0.00 0.00 75 1012.6
20260505010414 61 101 0.0 0.0 0.00 0.00 0.00 75 1012.5
20260505005910 61 92 0.0 0.0 0.00 0.00 0.00 75 1012.6
20260505005408 61 62 1.0 1.0 0.00 0.00 0.00 74 1012.5